Flag Island, MN

2:32 AM CDT on April 26, 2017 (GMT -0500)
Flag Island

Weather History for KFGN - November, 2013

Change the Weather History Date:

Saturday, November 9, 2013

  Actual Average Record
Temperature  
Mean Temperature 32 °F -  
Max Temperature 33 °F 31 °F 60 °F (2016)
Min Temperature 32 °F 23 °F 17 °F (1996)
Degree Days  
Heating Degree Days 32    
Moisture  
Dew Point 31 °F    
Average Humidity 91    
Maximum Humidity 93    
Minimum Humidity 80    
Precipitation  
Precipitation 0.02 in - - ()
Sea Level Pressure  
Sea Level Pressure 29.81 in    
Wind  
Wind Speed 9 mph (NW)    
Max Wind Speed 23 mph    
Max Gust Speed 26 mph    
Visibility 8 miles    
Events Rain , Snow    
Averages and records for this station are not official NWS values.
T = Trace of Precipitation, MM = Missing Value Source: NWS Daily Summary

Daily Weather History Graph

Daily Weather History Graph

Search for Another Location

Airport or City:

Trip Planner

Search our weather history database for the weather conditions in past years. The results will help you decide how hot, cold, wet, or windy it might be!

Date:

Astronomy

Nov. 09, 2013 Rise Set
Actual Time 7:21 AM CST 4:45 PM CST
Civil Twilight 6:46 AM CST 5:19 PM CST
Nautical Twilight 6:08 AM CST 5:57 PM CST
Astronomical Twilight 5:31 AM CST 6:35 PM CST
Moon 12:52 PM CST (11/9) 11:24 PM CST (11/9)
Length of Visible Light 10h 32m
Length of Day
9h 24m
Waxing Crescent, 44% of the Moon is Illuminated
Nov 9
Waxing Crescent
Nov 9
First Quarter
Nov 17
Full
Nov 25
Last Quarter
Dec 2
New

Hourly Weather History & Observations

Time (CST) Temp. Windchill Dew Point Humidity Pressure Visibility Wind Dir Wind Speed Gust Speed Precip Events Conditions
12:14 AM 33.8 °F 29.6 °F 32.0 °F 93% 29.62 in 10.0 mi East 4.6 mph - N/A   Light Drizzle
12:33 AM 33.8 °F 29.6 °F 32.0 °F 93% 29.63 in 10.0 mi East 4.6 mph - N/A   Light Drizzle
12:54 AM 33.8 °F 30.8 °F 32.0 °F 93% 29.62 in 10.0 mi ENE 3.5 mph - N/A   Light Drizzle
1:13 AM 33.8 °F 30.8 °F 32.0 °F 93% 29.62 in 10.0 mi East 3.5 mph - N/A   Light Drizzle
1:33 AM 33.8 °F 29.6 °F 32.0 °F 93% 29.62 in 10.0 mi ENE 4.6 mph - N/A   Overcast
1:53 AM 33.8 °F 30.8 °F 32.0 °F 93% 29.62 in 7.0 mi ENE 3.5 mph - N/A   Overcast
2:13 AM 33.8 °F 29.6 °F 32.0 °F 93% 29.62 in 5.0 mi ENE 4.6 mph - N/A   Overcast
2:33 AM 33.8 °F 29.6 °F 32.0 °F 93% 29.62 in 7.0 mi NE 4.6 mph - N/A   Overcast
2:53 AM 33.8 °F 30.8 °F 32.0 °F 93% 29.62 in 10.0 mi ENE 3.5 mph - N/A   Overcast
3:13 AM 33.8 °F 30.8 °F 32.0 °F 93% 29.62 in 10.0 mi NE 3.5 mph - N/A   Overcast
3:33 AM 33.8 °F 30.8 °F 32.0 °F 93% 29.62 in 7.0 mi NNE 3.5 mph - N/A   Overcast
3:53 AM 33.8 °F - 32.0 °F 93% 29.62 in 4.0 mi Calm Calm - N/A   Overcast
4:13 AM 33.8 °F - 32.0 °F 93% 29.63 in 4.0 mi Calm Calm - N/A   Overcast
4:33 AM 33.8 °F 30.8 °F 32.0 °F 93% 29.64 in 5.0 mi North 3.5 mph - 0.01 in   Overcast
4:54 AM 33.8 °F 29.6 °F 32.0 °F 93% 29.64 in 5.0 mi NNW 4.6 mph - 0.01 in Snow Light Snow
5:13 AM 33.8 °F 29.6 °F 32.0 °F 93% 29.65 in 5.0 mi North 4.6 mph - N/A Snow Light Snow
5:33 AM 33.8 °F 29.6 °F 32.0 °F 93% 29.65 in 7.0 mi NNW 4.6 mph - N/A Rain Light Rain
5:54 AM 33.8 °F 27.7 °F 32.0 °F 93% 29.65 in 10.0 mi NNW 6.9 mph - N/A   Overcast
6:13 AM 33.8 °F 27.7 °F 32.0 °F 93% 29.66 in 10.0 mi NW 6.9 mph - N/A Rain Light Rain
6:33 AM 33.8 °F 27.7 °F 32.0 °F 93% 29.67 in 7.0 mi WNW 6.9 mph - N/A   Light Drizzle
6:54 AM 33.8 °F 27.0 °F 32.0 °F 93% 29.68 in 2.0 mi WNW 8.1 mph - N/A Snow Light Snow
7:13 AM 33.8 °F 27.7 °F 32.0 °F 93% 29.68 in 2.0 mi WNW 6.9 mph - N/A Snow Light Snow
7:33 AM 33.8 °F 27.7 °F 32.0 °F 93% 29.69 in 1.8 mi WNW 6.9 mph - 0.01 in Snow Light Snow
7:54 AM 33.8 °F 27.0 °F 32.0 °F 93% 29.69 in 1.2 mi WNW 8.1 mph - 0.01 in Snow Light Snow
8:04 AM 33.8 °F 27.0 °F 32.0 °F 93% 29.69 in 1.2 mi WNW 8.1 mph - N/A Snow Light Snow
8:21 AM 33.8 °F 27.0 °F 32.0 °F 93% 29.70 in 2.5 mi WNW 8.1 mph - N/A   Overcast
8:35 AM 33.8 °F 27.0 °F 32.0 °F 93% 29.70 in 3.0 mi WNW 8.1 mph - N/A Snow Light Snow
8:41 AM 33.8 °F 27.7 °F 32.0 °F 93% 29.70 in 2.5 mi WNW 6.9 mph - N/A   Overcast
9:01 AM 33.8 °F 27.0 °F 32.0 °F 93% 29.71 in 1.8 mi WNW 8.1 mph - N/A   Overcast
9:21 AM 33.8 °F 26.4 °F 32.0 °F 93% 29.72 in 5.0 mi WNW 9.2 mph - N/A   Overcast
9:43 AM 33.8 °F 27.0 °F 32.0 °F 93% 29.72 in 2.5 mi West 8.1 mph - N/A Snow Light Snow
9:54 AM 33.8 °F 27.0 °F 32.0 °F 93% 29.72 in 5.0 mi WNW 8.1 mph - N/A Snow Light Snow
10:13 AM 33.8 °F 25.8 °F 32.0 °F 93% 29.73 in 7.0 mi WNW 10.4 mph - N/A Snow Light Snow
10:21 AM 33.8 °F 25.8 °F 32.0 °F 93% 29.73 in 10.0 mi WNW 10.4 mph - N/A   Overcast
10:56 AM 33.8 °F 25.3 °F 32.0 °F 93% 29.74 in 7.0 mi WNW 11.5 mph - N/A Snow Light Snow
11:13 AM 33.8 °F 24.3 °F 32.0 °F 93% 29.75 in 10.0 mi WNW 13.8 mph - N/A   Overcast
11:33 AM 33.8 °F 23.9 °F 32.0 °F 93% 29.75 in 10.0 mi WNW 15.0 mph - N/A Snow Light Snow
11:54 AM 33.8 °F 24.3 °F 32.0 °F 93% 29.76 in 10.0 mi WNW 13.8 mph - N/A Snow Light Snow
12:13 PM 33.8 °F 24.3 °F 32.0 °F 93% 29.76 in 10.0 mi WNW 13.8 mph - N/A   Overcast
12:33 PM 33.8 °F 23.5 °F 32.0 °F 93% 29.77 in 10.0 mi WNW 16.1 mph - N/A   Overcast
12:53 PM 33.8 °F 24.3 °F 32.0 °F 93% 29.77 in 10.0 mi WNW 13.8 mph - N/A   Overcast
1:13 PM 33.8 °F 23.9 °F 32.0 °F 93% 29.78 in 10.0 mi WNW 15.0 mph - N/A   Overcast
1:34 PM 33.8 °F 23.2 °F 30.2 °F 87% 29.79 in 7.0 mi WNW 17.3 mph - N/A Snow Light Snow
1:54 PM 33.8 °F 24.3 °F 32.0 °F 93% 29.80 in 7.0 mi WNW 13.8 mph - N/A Snow Light Snow
2:13 PM 33.8 °F 24.8 °F 32.0 °F 93% 29.81 in 10.0 mi WNW 12.7 mph - N/A Snow Light Snow
2:33 PM 33.8 °F 24.3 °F 32.0 °F 93% 29.82 in 10.0 mi WNW 13.8 mph - N/A   Overcast
2:54 PM 33.8 °F 23.9 °F 32.0 °F 93% 29.83 in 10.0 mi WNW 15.0 mph - N/A Snow Light Snow
3:13 PM 33.8 °F 23.9 °F 32.0 °F 93% 29.84 in 10.0 mi WNW 15.0 mph - N/A Snow Light Snow
3:33 PM 33.8 °F 23.2 °F 32.0 °F 93% 29.86 in 10.0 mi WNW 17.3 mph - N/A Snow Light Snow
3:54 PM 33.8 °F 23.5 °F 32.0 °F 93% 29.87 in 10.0 mi NW 16.1 mph - N/A   Light Drizzle
4:13 PM 33.8 °F 23.2 °F 32.0 °F 93% 29.88 in 10.0 mi NW 17.3 mph - N/A Rain Light Rain
4:30 PM 33.8 °F 24.3 °F 32.0 °F 93% 29.90 in 7.0 mi NNW 13.8 mph - N/A Snow Light Snow
4:41 PM 33.8 °F 23.5 °F 32.0 °F 93% 29.91 in 10.0 mi NW 16.1 mph - N/A   Overcast
4:58 PM 33.8 °F 23.9 °F 32.0 °F 93% 29.92 in 7.0 mi NNW 15.0 mph - N/A Snow Light Snow
5:13 PM 33.8 °F 23.2 °F 32.0 °F 93% 29.93 in 10.0 mi NNW 17.3 mph - N/A   Overcast
5:33 PM 33.8 °F 22.8 °F 32.0 °F 93% 29.95 in 10.0 mi NNW 18.4 mph - N/A   Light Drizzle
5:54 PM 33.8 °F 23.9 °F 30.2 °F 87% 29.96 in 10.0 mi NNW 15.0 mph - N/A   Light Drizzle
6:13 PM 33.8 °F 23.5 °F 30.2 °F 87% 29.98 in 10.0 mi NNW 16.1 mph - N/A   Overcast
6:33 PM 33.8 °F 22.5 °F 30.2 °F 87% 29.99 in 10.0 mi NNW 19.6 mph - N/A   Overcast
6:54 PM 33.8 °F 22.8 °F 30.2 °F 87% 30.01 in 10.0 mi NNW 18.4 mph - N/A   Overcast
7:13 PM 33.8 °F 23.5 °F 30.2 °F 87% 30.02 in 7.0 mi NNW 16.1 mph - N/A   Overcast
7:33 PM 33.8 °F 23.5 °F 30.2 °F 87% 30.03 in 10.0 mi NNW 16.1 mph 23.0 mph N/A   Overcast
7:53 PM 33.8 °F 23.2 °F 30.2 °F 87% 30.04 in 7.0 mi NW 17.3 mph - N/A Snow Light Snow
8:13 PM 33.8 °F 22.5 °F 30.2 °F 87% 30.05 in 7.0 mi NW 19.6 mph - N/A   Overcast
8:34 PM 33.8 °F 22.5 °F 30.2 °F 87% 30.06 in 10.0 mi NW 19.6 mph 24.2 mph N/A   Overcast
8:53 PM 33.8 °F 23.2 °F 30.2 °F 87% 30.07 in 10.0 mi NW 17.3 mph - N/A   Overcast
9:13 PM 33.8 °F 23.2 °F 30.2 °F 87% 30.09 in 10.0 mi NW 17.3 mph - N/A   Overcast
9:34 PM 33.8 °F 23.2 °F 30.2 °F 87% 30.09 in 10.0 mi NW 17.3 mph 21.9 mph N/A   Overcast
9:53 PM 33.8 °F 23.2 °F 30.2 °F 87% 30.10 in 10.0 mi NW 17.3 mph - N/A   Overcast
10:13 PM 33.8 °F 23.2 °F 30.2 °F 87% 30.11 in 10.0 mi NW 17.3 mph - N/A   Overcast
10:34 PM 33.8 °F 21.6 °F 28.4 °F 81% 30.12 in 10.0 mi NNW 23.0 mph - N/A   Overcast
10:53 PM 33.8 °F 22.5 °F 28.4 °F 81% 30.12 in 10.0 mi WNW 19.6 mph 23.0 mph N/A   Overcast
11:13 PM 33.8 °F 22.2 °F 28.4 °F 81% 30.13 in 10.0 mi NW 20.7 mph 26.5 mph N/A   Overcast
11:33 PM 32.0 °F 20.5 °F 28.4 °F 87% 30.14 in 10.0 mi WNW 18.4 mph 25.3 mph N/A   Overcast
11:53 PM 32.0 °F 20.5 °F 26.6 °F 80% 30.15 in 10.0 mi NW 18.4 mph 24.2 mph N/A   Overcast